KD0JCP-10 Weather Reports


time (UTC)temp
C
wind
direction
speed
KPH
gust
KPH
rain 1hr
cm
rain 24hr
cm
rain mn
cm
humidity
%
barometer
mb
20260906195332 28 121 1.6 8.0 0.00 0.05 0.05 62 1012.9
20260906194832 28 111 1.6 6.4 0.00 0.05 0.05 65 1012.8
20260906194332 28 79 3.2 4.8 0.00 0.05 0.05 65 1012.8
20260906193832 28 116 3.2 11.3 0.00 0.05 0.05 65 1012.8
20260906193332 28 63 3.2 8.0 0.00 0.05 0.05 63 1012.7
20260906192832 28 74 3.2 9.7 0.00 0.05 0.05 64 1012.7
20260906192332 28 109 4.8 4.8 0.00 0.05 0.05 64 1012.8
20260906191832 28 66 6.4 12.9 0.00 0.05 0.05 64 1012.8
20260906191332 28 81 6.4 12.9 0.00 0.05 0.05 65 1012.8
20260906190832 28 72 3.2 16.1 0.00 0.05 0.05 65 1012.8
20260906190332 28 97 3.2 4.8 0.00 0.05 0.05 63 1012.8
20260906185832 28 94 3.2 4.8 0.00 0.05 0.05 64 1013.1
20260906185332 28 76 3.2 4.8 0.00 0.05 0.05 65 1013.2
20260906184832 28 62 1.6 11.3 0.00 0.05 0.05 64 1013.1
20260906184332 28 113 1.6 6.4 0.00 0.05 0.05 63 1013.1
20260906183832 28 82 3.2 9.7 0.00 0.05 0.05 63 1013.0
20260906183332 28 72 3.2 6.4 0.00 0.05 0.05 63 1013.0
20260906182833 28 96 3.2 12.9 0.00 0.05 0.05 62 1013.0
20260906182333 28 96 3.2 9.7 0.00 0.05 0.05 60 1013.0
20260906181833 27 45 3.2 6.4 0.00 0.05 0.05 63 1013.1
20260906181333 27 107 3.2 9.7 0.00 0.05 0.05 64 1013.1
20260906180833 27 98 3.2 8.0 0.00 0.05 0.05 63 1013.0
20260906180333 27 107 3.2 4.8 0.00 0.05 0.05 63 1013.0
20260906175833 27 69 6.4 12.9 0.00 0.05 0.05 65 1013.1
20260906175333 26 106 4.8 14.5 0.00 0.05 0.05 66 1013.1
20260906174833 26 82 3.2 8.0 0.00 0.05 0.05 67 1013.1
20260906174333 26 58 3.2 8.0 0.00 0.05 0.05 67 1013.1
20260906173833 26 123 1.6 4.8 0.00 0.05 0.05 70 1013.1
20260906173333 25 133 0.0 4.8 0.00 0.05 0.05 68 1013.2
20260906172833 25 158 0.0 1.6 0.00 0.05 0.05 69 1013.3
20260906172333 25 158 0.0 1.6 0.00 0.05 0.05 70 1013.2
20260906171833 25 158 0.0 0.0 0.00 0.05 0.05 70 1013.3
20260906171333 25 158 0.0 1.6 0.00 0.05 0.05 71 1013.1
20260906170833 25 158 1.6 3.2 0.00 0.05 0.05 70 1013.0
20260906170333 25 127 1.6 1.6 0.00 0.05 0.05 71 1012.9
20260906165833 25 127 1.6 3.2 0.00 0.05 0.05 69 1012.6
20260906165333 25 117 1.6 6.4 0.00 0.05 0.05 69 1012.4
20260906164833 24 168 0.0 3.2 0.00 0.05 0.05 70 1012.4
20260906164333 24 168 1.6 3.2 0.00 0.05 0.05 69 1012.4
20260906163833 24 173 1.6 4.8 0.00 0.05 0.05 68 1012.5
20260906163333 24 153 1.6 6.4 0.03 0.05 0.05 69 1012.4
20260906162833 24 175 3.2 4.8 0.03 0.05 0.05 68 1012.5
20260906162333 24 159 3.2 6.4 0.03 0.05 0.05 69 1012.4
20260906161833 24 177 3.2 6.4 0.03 0.05 0.05 69 1012.5
20260906161333 24 182 3.2 6.4 0.03 0.05 0.05 68 1012.8
20260906160833 24 191 4.8 8.0 0.03 0.05 0.05 67 1012.8
20260906160333 23 102 4.8 9.7 0.03 0.05 0.05 67 1012.7
20260906155833 22 183 3.2 11.3 0.05 0.05 0.05 69 1012.7
20260906155333 22 211 1.6 8.0 0.05 0.05 0.05 72 1012.6
20260906154833 22 341 1.6 6.4 0.05 0.05 0.05 76 1012.4
20260906154333 22 338 3.2 8.0 0.05 0.05 0.05 76 1012.3
20260906153833 22 50 4.8 6.4 0.05 0.05 0.05 74 1011.6
20260906153333 22 188 6.4 9.7 0.03 0.03 0.03 71 1011.7
20260906152833 22 185 4.8 11.3 0.03 0.03 0.03 74 1011.7
20260906152333 22 171 3.2 8.0 0.03 0.03 0.03 73 1012.9
20260906151833 22 200 1.6 4.8 0.03 0.03 0.03 76 1013.2
20260906151333 22 200 1.6 4.8 0.03 0.03 0.03 78 1013.3
20260906150833 21 192 1.6 4.8 0.03 0.03 0.03 79 1013.4
20260906150333 22 192 3.2 6.4 0.03 0.03 0.03 82 1013.3
20260906145833 22 190 1.6 6.4 0.00 0.00 0.00 82 1013.6
20260906145333 22 109 1.6 3.2 0.00 0.00 0.00 83 1013.7
20260906144833 22 109 1.6 3.2 0.00 0.00 0.00 82 1013.5
20260906144333 22 246 1.6 6.4 0.00 0.00 0.00 83 1013.6
20260906143833 22 268 1.6 6.4 0.00 0.00 0.00 82 1013.9
20260906143333 22 298 1.6 4.8 0.00 0.00 0.00 83 1014.2
20260906142833 22 216 1.6 6.4 0.00 0.00 0.00 82 1014.5
20260906142333 22 255 3.2 4.8 0.00 0.00 0.00 82 1014.5
20260906141833 22 286 3.2 4.8 0.00 0.00 0.00 82 1014.4
20260906141333 22 269 3.2 14.5 0.00 0.00 0.00 82 1014.5
20260906140833 22 269 1.6 4.8 0.00 0.00 0.00 84 1014.5
20260906140333 21 284 1.6 4.8 0.00 0.00 0.00 84 1014.6
20260906135833 21 307 0.0 3.2 0.00 0.00 0.00 85 1014.7
20260906135333 21 308 0.0 3.2 0.00 0.00 0.00 85 1014.7
20260906134833 21 308 0.0 3.2 0.00 0.00 0.00 85 1014.8
20260906134333 21 313 0.0 3.2 0.00 0.00 0.00 85 1014.7
20260906133833 21 305 1.6 3.2 0.00 0.00 0.00 85 1014.5
20260906133333 21 300 1.6 9.7 0.00 0.00 0.00 85 1014.5
20260906132833 21 322 1.6 6.4 0.00 0.00 0.00 85 1014.3
20260906132333 21 315 1.6 4.8 0.00 0.00 0.00 85 1014.4
20260906131833 21 309 1.6 6.4 0.00 0.00 0.00 85 1014.4
20260906131333 21 311 1.6 4.8 0.00 0.00 0.00 84 1014.4
20260906130833 21 317 1.6 6.4 0.00 0.00 0.00 84 1014.4
20260906130333 22 316 1.6 8.0 0.00 0.00 0.00 84 1014.4
20260906125833 22 296 3.2 4.8 0.00 0.00 0.00 83 1014.3
20260906125333 22 299 3.2 14.5 0.00 0.00 0.00 83 1014.3
20260906124833 22 289 3.2 9.7 0.00 0.00 0.00 82 1014.4
20260906124333 22 319 3.2 9.7 0.00 0.00 0.00 82 1014.4
20260906123833 22 305 3.2 12.9 0.00 0.00 0.00 81 1014.4
20260906123333 22 306 3.2 8.0 0.00 0.00 0.00 80 1014.4
20260906122833 22 301 3.2 8.0 0.00 0.00 0.00 80 1014.5
20260906122333 23 285 3.2 11.3 0.00 0.00 0.00 79 1014.4
20260906121833 23 13 3.2 9.7 0.00 0.00 0.00 79 1014.4
20260906121333 23 286 3.2 11.3 0.00 0.00 0.00 78 1014.6
20260906120833 23 320 3.2 9.7 0.00 0.00 0.00 78 1014.4
20260906120333 23 316 3.2 11.3 0.00 0.00 0.00 77 1014.5
20260906115833 23 292 3.2 12.9 0.00 0.00 0.00 77 1014.4
20260906115333 23 322 3.2 8.0 0.00 0.00 0.00 76 1014.4
20260906114833 24 305 3.2 11.3 0.00 0.00 0.00 77 1014.2
20260906114333 24 306 3.2 14.5 0.00 0.00 0.00 77 1014.2
20260906113833 24 336 3.2 4.8 0.00 0.00 0.00 77 1013.9
20260906113333 24 329 1.6 4.8 0.00 0.00 0.00 76 1013.8
20260906112833 24 305 1.6 3.2 0.00 0.00 0.00 76 1013.6
20260906112333 24 304 3.2 6.4 0.00 0.00 0.00 76 1013.5
20260906111833 24 323 1.6 11.3 0.00 0.00 0.00 76 1013.5
20260906111333 24 330 1.6 3.2 0.00 0.00 0.00 76 1013.3
20260906110833 23 316 1.6 4.8 0.00 0.00 0.00 76 1013.2
20260906110333 23 296 3.2 6.4 0.00 0.00 0.00 77 1013.2
20260906105833 23 303 3.2 6.4 0.00 0.00 0.00 78 1013.0
20260906105333 23 304 1.6 8.0 0.00 0.00 0.00 78 1013.1
20260906104833 23 134 0.0 1.6 0.00 0.00 0.00 77 1012.3
20260906104333 23 134 0.0 0.0 0.00 0.00 0.00 77 1012.2
20260906103833 23 134 0.0 0.0 0.00 0.00 0.00 77 1012.1
20260906103333 23 134 0.0 1.6 0.00 0.00 0.00 77 1012.0
20260906102833 23 134 0.0 3.2 0.00 0.00 0.00 77 1011.9
20260906102333 23 134 0.0 1.6 0.00 0.00 0.00 77 1011.8
20260906101833 24 134 0.0 1.6 0.00 0.00 0.00 77 1011.8
20260906101333 23 134 0.0 3.2 0.00 0.00 0.00 77 1011.9
20260906100834 23 134 0.0 3.2 0.00 0.00 0.00 77 1011.9
20260906100333 23 134 0.0 4.8 0.00 0.00 0.00 77 1012.0
20260906095834 24 106 0.0 1.6 0.00 0.00 0.00 77 1012.0
20260906095334 24 106 0.0 4.8 0.00 0.00 0.00 77 1012.0
20260906094834 24 113 0.0 3.2 0.00 0.00 0.00 77 1012.0
20260906094334 24 113 0.0 0.0 0.00 0.00 0.00 77 1011.9
20260906093834 24 113 0.0 3.2 0.00 0.00 0.00 77 1011.9
20260906093334 24 113 1.6 6.4 0.00 0.00 0.00 77 1011.9
20260906092834 24 92 0.0 4.8 0.00 0.00 0.00 76 1011.8
20260906092334 24 113 1.6 1.6 0.00 0.00 0.00 76 1011.8
20260906091834 24 113 1.6 6.4 0.00 0.00 0.00 76 1011.7
20260906091334 24 135 1.6 11.3 0.00 0.00 0.00 77 1011.6
20260906090834 24 141 1.6 3.2 0.00 0.00 0.00 77 1011.6
20260906090334 24 139 1.6 3.2 0.00 0.00 0.00 77 1011.6
20260906085834 24 106 1.6 4.8 0.00 0.00 0.00 78 1011.6
20260906085334 24 106 1.6 4.8 0.00 0.00 0.00 78 1011.4
20260906084834 24 128 1.6 6.4 0.00 0.00 0.00 78 1011.5
20260906084334 24 101 1.6 4.8 0.00 0.00 0.00 78 1011.4
20260906083834 24 109 1.6 4.8 0.00 0.00 0.00 78 1011.6
20260906083334 24 109 1.6 3.2 0.00 0.00 0.00 78 1011.6
20260906082834 24 109 0.0 1.6 0.00 0.00 0.00 77 1011.6
20260906082334 24 140 0.0 1.6 0.00 0.00 0.00 77 1011.7
20260906081834 25 141 1.6 3.2 0.00 0.00 0.00 77 1011.7
20260906081334 25 141 1.6 3.2 0.00 0.00 0.00 77 1011.7
20260906080834 25 136 0.0 3.2 0.00 0.00 0.00 77 1011.7
20260906080334 24 129 0.0 0.0 0.00 0.00 0.00 77 1011.6
20260906075834 25 129 0.0 0.0 0.00 0.00 0.00 77 1011.7
20260906075334 24 126 1.6 3.2 0.00 0.00 0.00 77 1011.8
20260906074834 25 108 1.6 3.2 0.00 0.00 0.00 77 1011.7
20260906074334 25 108 1.6 4.8 0.00 0.00 0.00 77 1011.7
20260906073834 -17 103 1.6 3.2 0.00 0.00 0.00 77 1011.7
20260906073334 25 97 0.0 3.2 0.00 0.00 0.00 77 1011.6
20260906072834 25 96 0.0 3.2 0.00 0.00 0.00 77 1011.7
20260906072334 25 109 1.6 3.2 0.00 0.00 0.00 77 1011.6
20260906071834 -17 109 1.6 3.2 0.00 0.00 0.00 77 1011.7
20260906071334 25 109 1.6 3.2 0.00 0.00 0.00 76 1011.6
20260906070834 25 109 1.6 3.2 0.00 0.00 0.00 76 1011.5
20260906070334 25 118 1.6 3.2 0.00 0.00 0.00 76 1011.6
20260906065834 25 118 1.6 4.8 0.00 0.00 0.00 76 1011.5
20260906065334 25 107 0.0 4.8 0.00 0.00 0.00 76 1011.7
20260906064834 25 107 1.6 3.2 0.00 0.00 0.00 76 1011.5
20260906064334 25 107 1.6 3.2 0.00 0.00 0.00 76 1011.5
20260906063834 25 104 1.6 4.8 0.00 0.00 0.00 74 1011.4
20260906063334 26 127 1.6 3.2 0.00 0.00 0.00 75 1011.4
20260906062834 26 127 1.6 3.2 0.00 0.00 0.00 75 1011.4
20260906062334 25 127 1.6 9.7 0.00 0.00 0.00 75 1011.4
20260906061834 26 98 1.6 6.4 0.00 0.00 0.00 75 1011.5
20260906061334 26 123 1.6 3.2 0.00 0.00 0.00 74 1011.4
20260906060834 26 123 0.0 3.2 0.00 0.00 0.00 74 1011.4
20260906060334 26 123 1.6 3.2 0.00 0.00 0.00 74 1011.5
20260906055834 26 115 1.6 6.4 0.00 0.00 0.00 74 1011.5
20260906055334 26 118 1.6 12.9 0.00 0.00 0.00 74 1011.6
20260906054834 26 120 1.6 4.8 0.00 0.00 0.00 73 1011.6
20260906054334 26 130 0.0 3.2 0.00 0.00 0.00 73 1011.6
20260906053834 26 130 0.0 3.2 0.00 0.00 0.00 73 1011.6
20260906053334 26 130 0.0 4.8 0.00 0.00 0.00 73 1011.6
20260906052834 26 112 1.6 4.8 0.00 0.00 0.00 73 1011.7
20260906052334 26 112 1.6 3.2 0.00 0.00 0.00 73 1011.6
20260906051834 26 121 1.6 3.2 0.00 0.00 0.00 73 1011.8
20260906051334 26 121 1.6 4.8 0.00 0.00 0.00 73 1011.7
20260906050834 27 126 0.0 3.2 0.00 0.00 0.00 72 1011.7
20260906050334 27 126 1.6 3.2 0.00 0.00 0.00 72 1011.6
20260906045834 27 126 1.6 3.2 0.00 0.00 0.00 72 1011.5
20260906045334 27 128 1.6 6.4 0.00 0.00 0.00 72 1011.6
20260906044834 27 113 0.0 3.2 0.00 0.00 0.00 72 1011.5
20260906044334 27 113 0.0 3.2 0.00 0.00 0.00 72 1011.6
20260906043834 27 113 0.0 1.6 0.00 0.00 0.00 72 1011.6
20260906043334 27 113 0.0 1.6 0.00 0.00 0.00 72 1011.5
20260906042834 27 113 1.6 3.2 0.00 0.00 0.00 72 1011.5
20260906042334 27 113 0.0 4.8 0.00 0.00 0.00 72 1011.5
20260906041834 27 113 0.0 1.6 0.00 0.00 0.00 72 1011.4
20260906041334 27 113 1.6 3.2 0.00 0.00 0.00 72 1011.6
20260906040834 27 113 0.0 4.8 0.00 0.00 0.00 72 1011.5
20260906040334 27 113 0.0 1.6 0.00 0.00 0.00 72 1011.5
20260906035834 27 112 0.0 3.2 0.00 0.00 0.00 72 1011.5
20260906035334 27 112 0.0 1.6 0.00 0.00 0.00 73 1011.4
20260906034834 27 112 0.0 3.2 0.00 0.00 0.00 73 1011.4
20260906034334 27 112 1.6 3.2 0.00 0.00 0.00 72 1011.3
20260906033834 27 112 1.6 4.8 0.00 0.00 0.00 72 1011.4
20260906033334 27 124 0.0 1.6 0.00 0.00 0.00 72 1011.3
20260906032834 27 126 0.0 3.2 0.00 0.00 0.00 71 1011.3
20260906032334 27 126 0.0 3.2 0.00 0.00 0.00 71 1011.2
20260906031834 28 126 1.6 3.2 0.00 0.00 0.00 71 1011.1
20260906031334 28 123 1.6 3.2 0.00 0.00 0.00 71 1011.1
20260906030834 28 124 1.6 3.2 0.00 0.00 0.00 70 1011.1
20260906030334 28 124 1.6 3.2 0.00 0.00 0.00 70 1011.0
20260906025834 28 124 0.0 3.2 0.00 0.00 0.00 70 1011.1
20260906025334 28 124 0.0 1.6 0.00 0.00 0.00 70 1010.9
20260906024834 28 124 0.0 3.2 0.00 0.00 0.00 70 1010.9
20260906024334 28 124 1.6 6.4 0.00 0.00 0.00 70 1011.0
20260906023834 28 101 1.6 9.7 0.00 0.00 0.00 69 1010.9
20260906023334 28 101 1.6 3.2 0.00 0.00 0.00 68 1010.7
20260906022834 29 101 1.6 4.8 0.00 0.00 0.00 68 1010.8
20260906022334 29 98 1.6 6.4 0.00 0.00 0.00 67 1010.5
20260906021834 29 129 1.6 4.8 0.00 0.00 0.00 67 1010.3
20260906021334 29 107 1.6 6.4 0.00 0.00 0.00 66 1010.3
20260906020834 30 60 1.6 3.2 0.00 0.00 0.00 66 1010.1
20260906020334 30 107 0.0 4.8 0.00 0.00 0.00 66 1010.2
20260906015835 30 101 0.0 1.6 0.00 0.00 0.00 66 1010.1
20260906015334 30 101 0.0 3.2 0.00 0.00 0.00 66 1010.1
20260906014835 30 101 0.0 4.8 0.00 0.00 0.00 66 1010.1
20260906014335 30 82 0.0 1.6 0.00 0.00 0.00 66 1010.0
20260906013835 30 80 0.0 3.2 0.00 0.00 0.00 65 1010.0
20260906013335 30 43 0.0 1.6 0.00 0.00 0.00 65 1010.0
20260906012835 30 43 1.6 3.2 0.00 0.00 0.00 65 1010.0
20260906012335 30 91 0.0 3.2 0.00 0.00 0.00 65 1009.9
20260906011835 30 91 1.6 3.2 0.00 0.00 0.00 64 1009.7
20260906011335 31 92 1.6 4.8 0.00 0.00 0.00 64 1009.6
20260906010835 31 90 0.0 1.6 0.00 0.00 0.00 64 1009.6
20260906010335 31 90 1.6 3.2 0.00 0.00 0.00 63 1009.6
20260906005835 31 83 0.0 3.2 0.00 0.00 0.00 63 1009.6
20260906005335 31 86 0.0 1.6 0.00 0.00 0.00 62 1009.7
20260906004835 31 86 1.6 1.6 0.00 0.00 0.00 62 1009.6
20260906004335 31 90 1.6 8.0 0.00 0.00 0.00 61 1009.7
20260906003835 31 137 1.6 3.2 0.00 0.00 0.00 61 1009.7
20260906003335 31 137 1.6 4.8 0.00 0.00 0.00 61 1009.7
20260906002835 32 128 1.6 4.8 0.00 0.00 0.00 60 1009.6
20260906002335 32 55 0.0 3.2 0.00 0.00 0.00 60 1009.7
20260906001835 32 115 0.0 4.8 0.00 0.00 0.00 60 1009.6
20260906001335 32 119 1.6 4.8 0.00 0.00 0.00 60 1009.4
20260906000835 32 111 1.6 4.8 0.00 0.00 0.00 59 1009.5
20260906000335 32 112 1.6 4.8 0.00 0.00 0.00 59 1009.5
20260905235835 32 111 1.6 4.8 0.00 0.00 0.00 59 1009.4
20260905235335 32 106 3.2 3.2 0.00 0.00 0.00 59 1009.3
20260905234835 32 107 3.2 6.4 0.00 0.00 0.00 58 1009.4
20260905234335 32 101 3.2 6.4 0.00 0.00 0.00 57 1009.4
20260905233835 32 111 3.2 6.4 0.00 0.00 0.00 57 1009.4
20260905233335 32 104 3.2 6.4 0.00 0.00 0.00 57 1009.4
20260905232835 32 115 1.6 4.8 0.00 0.00 0.00 56 1009.5
20260905232335 33 117 1.6 4.8 0.00 0.00 0.00 56 1009.4
20260905231835 33 96 3.2 6.4 0.00 0.00 0.00 55 1009.4
20260905231335 33 122 1.6 4.8 0.00 0.00 0.00 56 1009.3
20260905230835 33 121 1.6 4.8 0.00 0.00 0.00 55 1009.3
20260905230335 33 135 1.6 6.4 0.00 0.00 0.00 55 1009.2
20260905225835 33 89 1.6 6.4 0.00 0.00 0.00 55 1009.3
20260905225335 33 148 1.6 12.9 0.00 0.00 0.00 55 1009.3
20260905224835 33 142 1.6 6.4 0.00 0.00 0.00 55 1009.3
20260905224335 33 154 3.2 6.4 0.00 0.00 0.00 55 1009.4
20260905223835 33 143 3.2 8.0 0.00 0.00 0.00 55 1009.4
20260905223335 33 163 3.2 6.4 0.00 0.00 0.00 55 1009.4
20260905222835 33 129 4.8 4.8 0.00 0.00 0.00 55 1009.6
20260905222335 33 117 4.8 16.1 0.00 0.00 0.00 55 1009.6
20260905221835 33 111 3.2 11.3 0.00 0.00 0.00 55 1009.7
20260905221335 33 128 3.2 4.8 0.00 0.00 0.00 56 1009.7
20260905220835 33 115 4.8 12.9 0.00 0.00 0.00 55 1009.9
20260905220335 33 148 3.2 9.7 0.00 0.00 0.00 55 1009.8
20260905215835 33 113 4.8 12.9 0.00 0.00 0.00 55 1010.0
20260905215335 33 215 4.8 11.3 0.00 0.00 0.00 56 1009.9
20260905214835 33 115 3.2 11.3 0.00 0.00 0.00 57 1010.0
20260905214335 33 123 3.2 8.0 0.00 0.00 0.00 58 1009.9
20260905213835 33 122 1.6 6.4 0.00 0.00 0.00 58 1010.0
20260905213335 32 184 3.2 8.0 0.00 0.00 0.00 58 1010.1
20260905212835 32 113 4.8 12.9 0.00 0.00 0.00 58 1010.2
20260905212335 32 123 4.8 12.9 0.00 0.00 0.00 58 1010.3
20260905211835 32 64 3.2 19.3 0.00 0.00 0.00 58 1010.4
20260905211335 32 132 3.2 12.9 0.00 0.00 0.00 58 1010.4
20260905210835 32 128 3.2 12.9 0.00 0.00 0.00 59 1010.6
20260905210335 32 126 4.8 6.4 0.00 0.00 0.00 58 1010.6
20260905205835 32 134 3.2 9.7 0.00 0.00 0.00 58 1010.6
20260905205335 32 162 3.2 6.4 0.00 0.00 0.00 58 1010.8
20260905204835 32 57 3.2 11.3 0.00 0.00 0.00 56 1010.9
20260905204335 32 118 4.8 11.3 0.00 0.00 0.00 57 1011.0
20260905203835 32 120 4.8 12.9 0.00 0.00 0.00 58 1011.2
20260905203335 32 110 3.2 20.9 0.00 0.00 0.00 59 1011.2
20260905202835 32 192 4.8 4.8 0.00 0.00 0.00 61 1011.1
20260905202335 32 114 6.4 22.5 0.00 0.00 0.00 62 1011.3
20260905201835 32 103 3.2 17.7 0.00 0.00 0.00 62 1011.3
20260905201335 32 37 3.2 8.0 0.00 0.00 0.00 63 1011.4
20260905200835 32 87 6.4 14.5 0.00 0.00 0.00 63 1011.5
20260905200335 31 103 8.0 19.3 0.00 0.00 0.00 63 1011.5
20260905195835 31 143 8.0 19.3 0.00 0.00 0.00 63 1011.7